Aurora, IL

4:27 PM CST on November 11, 2019 (GMT -0600)
Aurora Municipal

Weather History for KARR - October, 2019

Change the Weather History Date:

Wednesday, October 23, 2019

  Actual Average Record
Temperature  
Mean Temperature 48 °F 48 °F  
Max Temperature 59 °F 60 °F 74 °F (2016)
Min Temperature 36 °F 37 °F 21 °F (1999)
Degree Days  
Heating Degree Days 17 17  
Month to date heating degree days 292 308  
Since 1 July heating degree days 324 461  
Cooling Degree Days 0 0  
Month to date cooling degree days 13 9  
Year to date cooling degree days 776 656  
Moisture  
Dew Point 36 °F    
Average Humidity 67    
Maximum Humidity 86    
Minimum Humidity 47    
Precipitation  
Precipitation 0.02 in 0.10 in 0.77 in (2001)
Month to date precipitation 2.35 2.34  
Year to date precipitation 39.60 30.98  
Sea Level Pressure  
Sea Level Pressure 29.92 in    
Wind  
Wind Speed 8 mph (SSW)    
Max Wind Speed 16 mph    
Max Gust Speed 24 mph    
Visibility 10 miles    
Events Rain    
T = Trace of Precipitation, MM = Missing Value Source: NWS Daily Summary

Daily Weather History Graph

Daily Weather History Graph

Search for Another Location

Airport or City:

Astronomy

Oct. 23, 2019 Rise Set
Actual Time 7:15 AM CDT 6:00 PM CDT
Civil Twilight 6:46 AM CDT 6:29 PM CDT
Nautical Twilight 6:14 AM CDT 7:01 PM CDT
Astronomical Twilight 5:42 AM CDT 7:33 PM CDT
Moon 1:27 AM CDT (10/23) 3:56 PM CDT (10/23)
Length of Visible Light 11h 42m
Length of Day
10h 45m
Waning Crescent, 26% of the Moon is Illuminated
Oct 23
Waning Crescent
Oct 27
New
Nov 4
First Quarter
Nov 12
Full
Nov 19
Last Quarter

Hourly Weather History & Observations

Time (CDT) Temp. Windchill Dew Point Humidity Pressure Visibility Wind Dir Wind Speed Gust Speed Precip Events Conditions
12:52 AM 41.0 °F 35.8 °F 30.9 °F 67% 29.83 in 10.0 mi SW 8.1 mph - 0.00 in   Clear
1:52 AM 39.9 °F 33.4 °F 30.9 °F 70% 29.84 in 10.0 mi SW 10.4 mph - N/A   Clear
2:52 AM 39.9 °F 32.9 °F 30.0 °F 68% 29.85 in 10.0 mi SW 11.5 mph - N/A   Clear
3:52 AM 39.9 °F 32.5 °F 30.0 °F 68% 29.86 in 10.0 mi SW 12.7 mph 23.0 mph N/A   Clear
4:52 AM 39.0 °F 32.8 °F 30.9 °F 73% 29.88 in 10.0 mi SW 9.2 mph - N/A   Clear
5:52 AM 37.0 °F 31.6 °F 30.0 °F 76% 29.91 in 10.0 mi SW 6.9 mph - N/A   Clear
6:52 AM 36.0 °F 30.3 °F 30.0 °F 79% 29.93 in 10.0 mi SSW 6.9 mph - N/A   Clear
7:52 AM 37.0 °F 31.0 °F 32.0 °F 82% 29.93 in 10.0 mi SSW 8.1 mph - 0.00 in   Clear
8:52 AM 42.1 °F 36.6 °F 34.0 °F 73% 29.96 in 10.0 mi SSW 9.2 mph - N/A   Clear
9:52 AM 45.0 °F 41.2 °F 35.1 °F 68% 29.96 in 10.0 mi SSW 6.9 mph - N/A   Partly Cloudy
10:52 AM 45.0 °F 41.2 °F 35.1 °F 68% 29.98 in 10.0 mi SSW 6.9 mph - N/A   Overcast
11:52 AM 46.0 °F - 37.9 °F 73% 29.97 in 10.0 mi Calm Calm - 0.00 in   Overcast
1:52 PM 52.0 °F - 39.0 °F 61% 29.93 in 10.0 mi South 11.5 mph - N/A   Clear
2:52 PM 57.0 °F - 39.9 °F 53% 29.90 in 10.0 mi South 10.4 mph - N/A   Clear
3:52 PM 57.9 °F - 37.9 °F 47% 29.91 in 10.0 mi SSE 15.0 mph - N/A   Clear
4:52 PM 57.0 °F - 37.9 °F 49% 29.89 in 10.0 mi South 6.9 mph - N/A   Scattered Clouds
5:52 PM 54.0 °F - 39.0 °F 57% 29.89 in 10.0 mi SE 4.6 mph - N/A   Mostly Cloudy
6:52 PM 52.0 °F - 39.9 °F 63% 29.94 in 10.0 mi West 3.5 mph - N/A   Overcast
7:52 PM 50.0 °F - 43.0 °F 77% 29.94 in 9.0 mi Calm Calm - 0.00 in Rain Light Rain
8:52 PM 48.9 °F - 44.1 °F 83% 29.95 in 10.0 mi NNW 9.2 mph - 0.00 in Rain Light Rain
9:52 PM 48.9 °F - 44.1 °F 83% 29.96 in 10.0 mi NNW 6.9 mph - 0.01 in   Overcast
10:52 PM 48.0 °F - 44.1 °F 86% 29.98 in 9.0 mi North 13.8 mph - 0.01 in Rain Light Rain
11:52 PM 46.9 °F - 43.0 °F 86% 29.99 in 9.0 mi NNE 8.1 mph - 0.00 in   Overcast